Date String (YYYY-MM-DD hh:mm:ss) UTC,Instrument flags,Ambient pressure (hPa),Sample flow (lpm),Bypass flow (lpm),Sample temperature (°C),Ambient temperature (°C),ASC tube jacket temperature (°C),LED temperature (°C),Box temperature (°C),Sample RH (%),Span deviation,Mass concentration (μg/m³),Mass concentration (μg/m³),Mass concentration (μg/m³)
DateTimeUTC,F1_M11,P_M11,Q1_M11,Q2_M11,T1_M11,T2_M11,T3_M11,T4_M11,T5_M11,U1_M11,ZSPAN_M11,X0_M11,X2_M11,X1_M11
2022-01-24 18:00:00,,0823.1,4.99,0.00,22.3,21.8,00.0,31.3,24.1,09.2,0000.0,0003.63,0002.38,0001.91
2022-01-24 18:01:00,,0823.1,5.00,0.00,22.3,21.8,00.0,31.3,24.1,09.3,0000.0,0003.48,0002.27,0001.83
2022-01-24 18:02:00,,0823.1,5.00,0.00,22.3,21.8,00.0,31.3,24.1,09.3,0000.0,0003.62,0002.16,0001.74
2022-01-24 18:03:00,,0823.1,5.00,0.00,22.3,21.8,00.0,31.3,24.1,09.2,0000.0,0004.19,0002.10,0001.69
2022-01-24 18:04:00,,0823.1,5.00,0.00,22.3,21.8,00.0,31.3,24.1,09.2,0000.0,0004.13,0002.09,0001.68
2022-01-24 18:05:00,,0823.1,5.00,0.00,22.3,21.8,00.0,31.3,24.1,09.1,0000.0,0004.91,0002.15,0001.69
2022-01-24 18:06:00,,0823.1,5.00,0.00,22.3,21.8,00.0,31.3,24.0,09.1,0000.0,0005.65,0002.18,0001.69
2022-01-24 18:07:00,,0823.1,5.00,0.00,22.3,21.8,00.0,31.3,24.0,09.2,0000.0,0005.73,0002.18,0001.69
2022-01-24 18:08:00,,0823.1,5.00,0.00,22.3,21.8,00.0,31.3,24.0,09.3,0000.0,0005.78,0002.17,0001.70
2022-01-24 18:09:00,,0823.2,5.00,0.00,22.3,21.8,00.0,31.3,24.0,09.4,0000.0,0006.00,0002.23,0001.71
2022-01-24 18:10:00,,0823.1,5.00,0.00,22.3,21.7,00.0,31.3,24.0,09.3,0000.0,0006.04,0002.22,0001.73
2022-01-24 18:11:00,,0823.1,5.00,0.00,22.2,21.7,00.0,31.3,24.0,09.5,0000.0,0006.03,0002.24,0001.76
2022-01-24 18:12:00,,0823.1,4.99,0.00,22.2,21.7,00.0,31.3,24.0,09.4,0000.0,0006.05,0002.25,0001.78
2022-01-24 18:13:00,,0823.1,4.99,0.00,22.2,21.6,00.0,31.3,24.0,09.1,0000.0,0005.83,0002.31,0001.82
2022-01-24 18:14:00,,0823.0,5.01,0.00,22.2,21.6,00.0,31.3,23.9,09.1,0000.0,0005.30,0002.35,0001.84
2022-01-24 18:15:00,,0823.0,5.01,0.00,22.2,21.6,00.0,31.3,23.9,09.0,0000.0,0005.28,0002.37,0001.85
2022-01-24 18:16:00,,0823.0,4.99,0.00,22.2,21.5,00.0,31.3,23.9,09.2,0000.0,0004.49,0002.35,0001.87
2022-01-24 18:17:00,,0822.9,5.00,0.00,22.1,21.5,00.0,31.3,23.8,09.2,0000.0,0004.11,0002.41,0001.90
2022-01-24 18:18:00,,0822.9,5.00,0.00,22.1,21.5,00.0,31.2,23.8,09.5,0000.0,0004.36,0002.53,0001.93
2022-01-24 18:19:00,,0822.9,5.00,0.00,22.1,21.5,00.0,31.2,23.8,09.7,0000.0,0004.61,0002.61,0001.95
2022-01-24 18:20:00,,0822.9,5.00,0.00,22.1,21.5,00.0,31.2,23.8,09.4,0000.0,0004.54,0002.61,0001.97
2022-01-24 18:21:00,,0823.0,5.00,0.00,22.1,21.6,00.0,31.2,23.9,09.5,0000.0,0004.50,0002.64,0001.97
2022-01-24 18:22:00,,0822.9,5.01,0.00,22.1,21.6,00.0,31.2,23.9,09.0,0000.0,0004.71,0002.66,0001.97
2022-01-24 18:23:00,,0822.9,5.00,0.00,22.2,21.6,00.0,31.2,23.9,09.2,0000.0,0005.31,0002.67,0001.97
2022-01-24 18:24:00,,0822.9,5.00,0.00,22.2,21.6,00.0,31.2,23.9,09.4,0000.0,0005.66,0002.64,0001.95
2022-01-24 18:25:00,,0822.9,4.99,0.00,22.2,21.6,00.0,31.2,23.9,09.6,0000.0,0005.83,0002.61,0001.94
2022-01-24 18:26:00,,0822.9,4.99,0.00,22.2,21.6,00.0,31.2,23.9,09.5,0000.0,0005.74,0002.59,0001.93
2022-01-24 18:27:00,,0822.8,5.00,0.00,22.2,21.6,00.0,31.2,23.9,09.8,0000.0,0006.95,0002.64,0001.93
2022-01-24 18:28:00,,0822.8,5.00,0.00,22.1,21.6,00.0,31.2,23.9,09.7,0000.0,0007.96,0002.66,0001.92
2022-01-24 18:29:00,,0822.8,5.01,0.00,22.1,21.5,00.0,31.2,23.8,09.9,0000.0,0008.16,0002.60,0001.90
2022-01-24 18:30:00,,0822.8,5.01,0.00,22.1,21.5,00.0,31.2,23.8,09.9,0000.0,0008.03,0002.57,0001.90
2022-01-24 18:31:00,,0822.7,5.00,0.00,22.1,21.5,00.0,31.2,23.8,09.9,0000.0,0008.15,0002.60,0001.88
2022-01-24 18:32:00,,0822.7,5.00,0.00,22.1,21.6,00.0,31.2,23.8,09.6,0000.0,0008.65,0002.62,0001.88
2022-01-24 18:33:00,,0822.7,5.00,0.00,22.1,21.6,00.0,31.2,23.8,09.7,0000.0,0008.57,0002.61,0001.86
2022-01-24 18:34:00,,0822.7,5.00,0.00,22.1,21.6,00.0,31.1,23.8,09.7,0000.0,0008.23,0002.61,0001.84
2022-01-24 18:35:00,,0822.7,5.00,0.00,22.1,21.5,00.0,31.1,23.8,09.4,0000.0,0008.07,0002.63,0001.85
2022-01-24 18:36:00,,0822.7,5.00,0.00,22.1,21.5,00.0,31.1,23.8,09.6,0000.0,0007.91,0002.62,0001.82
2022-01-24 18:37:00,,0822.7,4.98,0.00,22.1,21.5,00.0,31.1,23.8,09.4,0000.0,0008.00,0002.62,0001.82
2022-01-24 18:38:00,,0822.7,5.01,0.00,22.1,21.6,00.0,31.1,23.8,09.6,0000.0,0007.69,0002.56,0001.80
2022-01-24 18:39:00,,0822.6,5.00,0.00,22.1,21.5,00.0,31.1,23.8,09.6,0000.0,0006.96,0002.54,0001.79
2022-01-24 18:40:00,,0822.7,5.00,0.00,22.1,21.5,00.0,31.1,23.8,09.5,0000.0,0006.68,0002.54,0001.79
2022-01-24 18:41:00,,0822.7,5.00,0.00,22.0,21.5,00.0,31.1,23.7,09.5,0000.0,0007.73,0002.49,0001.79
2022-01-24 18:42:00,,0822.6,4.99,0.00,22.0,21.4,00.0,31.1,23.7,09.6,0000.0,0007.59,0002.43,0001.80
2022-01-24 18:43:00,,0822.6,5.00,0.00,22.0,21.4,00.0,31.1,23.7,09.8,0000.0,0006.91,0002.45,0001.81
2022-01-24 18:44:00,,0822.6,4.99,0.00,22.0,21.5,00.0,31.1,23.7,10.1,0000.0,0006.94,0002.47,0001.83
2022-01-24 18:45:00,,0822.6,5.01,0.00,22.0,21.4,00.0,31.1,23.7,09.8,0000.0,0007.10,0002.52,0001.84
2022-01-24 18:46:00,,0822.6,5.01,0.00,22.0,21.4,00.0,31.1,23.6,09.8,0000.0,0007.30,0002.56,0001.85
2022-01-24 18:47:00,,0822.6,5.00,0.00,22.0,21.4,00.0,31.1,23.6,09.9,0000.0,0007.42,0002.58,0001.87
2022-01-24 18:48:00,,0822.5,5.00,0.00,22.0,21.4,00.0,31.1,23.7,09.7,0000.0,0007.43,0002.62,0001.88
2022-01-24 18:49:00,,0822.5,5.00,0.00,22.0,21.4,00.0,31.1,23.7,09.1,0000.0,0006.95,0002.61,0001.88
2022-01-24 18:50:00,,0822.5,5.00,0.00,22.0,21.4,00.0,31.0,23.7,09.2,0000.0,0006.34,0002.58,0001.88
2022-01-24 18:51:00,,0822.6,5.00,0.00,22.0,21.5,00.0,31.0,23.7,09.2,0000.0,0005.89,0002.56,0001.87
2022-01-24 18:52:00,,0822.5,5.00,0.00,22.0,21.5,00.0,31.0,23.7,09.1,0000.0,0004.67,0002.60,0001.87
2022-01-24 18:53:00,,0822.5,5.01,0.00,22.0,21.6,00.0,31.0,23.8,09.3,0000.0,0004.82,0002.58,0001.86
2022-01-24 18:54:00,,0822.4,5.00,0.00,22.0,21.6,00.0,31.0,23.8,09.2,0000.0,0004.77,0002.53,0001.85
2022-01-24 18:55:00,,0822.5,5.00,0.00,22.0,21.6,00.0,31.0,23.8,09.3,0000.0,0005.40,0002.54,0001.85
2022-01-24 18:56:00,,0822.5,4.98,0.00,22.0,21.6,00.0,31.0,23.8,09.0,0000.0,0005.42,0002.51,0001.85
2022-01-24 18:57:00,,0822.5,5.00,0.00,22.0,21.5,00.0,31.0,23.8,09.2,0000.0,0005.15,0002.46,0001.85
2022-01-24 18:58:00,,0822.5,5.00,0.00,22.0,21.5,00.0,31.0,23.8,09.1,0000.0,0006.66,0002.42,0001.85
2022-01-24 18:59:00,,0822.5,5.00,0.00,22.0,21.5,00.0,31.0,23.8,09.1,0000.0,0007.05,0002.43,0001.86
